Regional Weather Roundup
Issued by NWS

Home | Current Version | Previous Version | Text Only | Print | Product List | Glossary On
Versions: 1 2 3 4 5 6 7 8 9 10 11 12 13 14 15 16 17 18 19 20 21 22 23 24 25 26 27 28 29 30 31 32 33 34 35 36 37 38 39 40 41 42 43 44 45 46 47 48 49 50
000
ASUS43 KLMK 231110
RWRKY
KENTUCKY REGIONAL WEATHER ROUNDUP
NATIONAL WEATHER SERVICE LOUISVILLE KY
700 AM EDT SUN APR 23 2017

NOTE "FAIR" INDICATES FEW OR NO CLOUDS BELOW 12,000 FEET
WITH NO SIGNIFICANT WEATHER AND/OR OBSTRUCTIONS TO VISIBILITY.

KYZ001>023-026-027-061>063-070>075-231200-
WESTERN AND SOUTH CENTRAL KENTUCKY

CITY           SKY/WX    TMP DP  RH WIND       PRES   REMARKS
PADUCAH        CLOUDY    50  39  66 N16G22    29.93S
HENDERSON      CLEAR     47  38  71 N10       29.97R
OWENSBORO      CLOUDY    48  38  68 NE12      29.94R
HOPKINSVILLE   DRIZZLE   48  46  94 NE10      29.87S
BOWLING GREEN  CLOUDY    49  47  93 NE8       29.88R
GLASGOW        CLOUDY   N/A N/A N/A NE8G16    29.86F
$$

KYZ024-025-028>034-038-045-046-053-231200-
NORTH CENTRAL KENTUCKY

CITY           SKY/WX    TMP DP  RH WIND       PRES   REMARKS
LOUISVILLE/SDF PTCLDY    47  38  71 NE13      29.96S
LOUISVILLE/LOU PTCLDY    47  36  65 NE8G18    29.96F
FORT KNOX      CLOUDY    46  39  75 NE10      29.92R
$$

KYZ035>037-039>044-047>052-055>060-089>105-231200-
NORTHEAST KENTUCKY

CITY           SKY/WX    TMP DP  RH WIND       PRES   REMARKS
LEXINGTON      PTCLDY    44  37  76 NE16      29.94S
COVINGTON      PTCLDY    43  35  73 NE13      30.01S
FRANKFORT      CLEAR     46  36  68 NE8       29.95R
$$

KYZ054-064>069-076>088-106>120-231200-
SOUTHEAST KENTUCKY

CITY           SKY/WX    TMP DP  RH WIND       PRES   REMARKS
JACKSON        LGT RAIN  46  43  89 CALM      29.91F
LONDON         CLOUDY    48  44  86 NE7       29.86F
SOMERSET       LGT RAIN  46  46 100 N5        29.90R
MIDDLESBORO    RAIN      51  51 100 CALM      29.88R
MONTICELLO     LGT RAIN  48  47  96 N16       29.90R
$$




USA.gov is the U.S. government's official web portal to all federal, state and local government web resources and services.